Kuiper-00077

operational
NORAD ID: 64824 Int'l Des: 2025-151 Owner: KUIP Country: US Constellation: kuiper
LEOCIRCULARSTARLINK_TYPE

Über Kuiper-00077

Beschreibung wird geladen...

Live-Position

3D-Globus wird geladen...

Nächste Überflüge

Höhenverlauf

Altitude vs Time

uPlot chart will show altitude changes over time

Zweizeiliger Elementsatz

1 64824U 25151J 25340.43650368 .00007684 00000-0 10358-2 0 9991
2 64824 51.9022 350.4535 0005994 275.6778 84.3501 14.79926790 21535
Epoch: 6. Dez. 2025 • Age: 23 hours

Aktueller Status

Höhe 633.9 km
Geschwindigkeit 7.54 km/s
Subsatellitenpunkt 32.55°N, 159.29°E
Startdatum 16. Juli 2025
Alter 0.3 years
Typ internet

Technische Details

Klassifizierung Payload
Masse 490.00 kg
Trockenmasse 490.00 kg
Gesamtmasse 490.00 kg
Länge 1.80 m
Durchmesser 0.70 m
Spannweite 5.00 m
Form Box + 2 pan
Hersteller KUIP
Bus-Typ Kuiper
Phasenstatus In Orbit
Besitzer/Staat KUIP/US

Große Konstellationen

Loading constellations...